URKAI UHMI-UHMD

Flight info

Callsign URKAI
Flight time 1h 38m
Altitude 23000
Route DCT ROPNA R351 LA KR824 DEMAT DCT DEGIR DEGIR1F
Aircraft TBM9/L-SDFGY/C

Departure

Time 2026-04-23 04:26
Airport Mys Shmidta Airport (UHMI)

Arrival

Time 2026-04-23 06:04
Airport Provideniya Bay Airport (UHMD)
Time Latitude Longitude Altitude Speed Heading
2026-04-23 04:14 68.86698 -179.37863 31 ft 0 kts 66°
2026-04-23 04:21 68.86698 -179.37862 31 ft 0 kts 66°
2026-04-23 04:21 68.86710 -179.37856 28 ft 5 kts 319°
2026-04-23 04:21 68.86673 -179.37907 27 ft 10 kts 157°
2026-04-23 04:21 68.86608 -179.37743 31 ft 15 kts 131°
2026-04-23 04:22 68.86631 -179.37458 29 ft 15 kts 65°
2026-04-23 04:22 68.86636 -179.37414 29 ft 0 kts 70°
2026-04-23 04:23 68.86637 -179.37405 29 ft 4 kts 68°
2026-04-23 04:23 68.86661 -179.37189 30 ft 20 kts 116°
2026-04-23 04:23 68.86515 -179.36874 31 ft 34 kts 143°
2026-04-23 04:23 68.86292 -179.36412 31 ft 46 kts 142°
2026-04-23 04:24 68.86058 -179.35854 31 ft 42 kts 137°
2026-04-23 04:24 68.85976 -179.35795 31 ft 15 kts 337°
2026-04-23 04:24 68.85997 -179.35833 30 ft 0 kts 318°
2026-04-23 04:25 68.86126 -179.36094 31 ft 54 kts 323°
2026-04-23 04:26 68.86579 -179.37045 106 ft 101 kts 321°
2026-04-23 04:26 68.87160 -179.38351 531 ft 115 kts 325°
2026-04-23 04:26 68.87832 -179.39770 995 ft 127 kts 326°
2026-04-23 04:26 68.88542 -179.41231 1635 ft 127 kts 326°
2026-04-23 04:27 68.89276 -179.42894 1788 ft 144 kts 324°
2026-04-23 04:27 68.90052 -179.44713 1808 ft 144 kts 321°
2026-04-23 04:27 68.90466 -179.47197 1756 ft 154 kts 273°
2026-04-23 04:28 68.89118 -179.51262 1718 ft 154 kts 195°
2026-04-23 04:28 68.88054 -179.51459 1600 ft 154 kts 168°
2026-04-23 04:28 68.87100 -179.50162 1458 ft 152 kts 146°
2026-04-23 04:28 68.86218 -179.48631 1618 ft 148 kts 143°
2026-04-23 04:29 68.85418 -179.46982 2268 ft 137 kts 132°
2026-04-23 04:29 68.84823 -179.44913 2743 ft 144 kts 119°
2026-04-23 04:29 68.84320 -179.42573 3361 ft 138 kts 116°
2026-04-23 04:29 68.83825 -179.40411 4063 ft 130 kts 117°
2026-04-23 04:30 68.83216 -179.38443 4534 ft 140 kts 133°
2026-04-23 04:30 68.82537 -179.36600 5194 ft 133 kts 127°
2026-04-23 04:30 68.81947 -179.34720 5807 ft 126 kts 120°
2026-04-23 04:30 68.81559 -179.32526 6223 ft 132 kts 101°
2026-04-23 04:31 68.81339 -179.29979 6712 ft 136 kts 100°
2026-04-23 04:31 68.80951 -179.27520 7182 ft 146 kts 120°
2026-04-23 04:31 68.80178 -179.25607 7663 ft 148 kts 128°
2026-04-23 04:31 68.79720 -179.23208 8123 ft 148 kts 102°
2026-04-23 04:32 68.79353 -179.20410 8510 ft 157 kts 109°
2026-04-23 04:32 68.78920 -179.17808 9284 ft 143 kts 108°
2026-04-23 04:32 68.78523 -179.15229 9743 ft 151 kts 109°
2026-04-23 04:32 68.78093 -179.12541 10287 ft 152 kts 109°
2026-04-23 04:33 68.77633 -179.09910 10817 ft 152 kts 112°
2026-04-23 04:33 68.77157 -179.07267 11238 ft 159 kts 114°
2026-04-23 04:33 68.76417 -179.04832 11596 ft 173 kts 135°
2026-04-23 04:33 68.75482 -179.02645 12000 ft 178 kts 134°
2026-04-23 04:34 68.74555 -179.00107 12002 ft 202 kts 126°
2026-04-23 04:34 68.73642 -178.96908 11831 ft 226 kts 126°
2026-04-23 04:34 68.72580 -178.93502 11704 ft 241 kts 129°
2026-04-23 04:34 68.71450 -178.90160 12037 ft 232 kts 130°
2026-04-23 04:35 68.70395 -178.86963 12571 ft 221 kts 129°
2026-04-23 04:35 68.69384 -178.83866 13117 ft 214 kts 129°
2026-04-23 04:35 68.68400 -178.80870 13641 ft 210 kts 129°
2026-04-23 04:35 68.67419 -178.77892 14061 ft 211 kts 129°
2026-04-23 04:36 68.66428 -178.74894 14455 ft 212 kts 129°
2026-04-23 04:36 68.65435 -178.71899 14832 ft 213 kts 129°
2026-04-23 04:36 68.64446 -178.68915 15214 ft 214 kts 130°
2026-04-23 04:36 68.63443 -178.65892 15597 ft 215 kts 130°
2026-04-23 04:37 68.62433 -178.62853 15993 ft 215 kts 130°
2026-04-23 04:37 68.61422 -178.59804 16387 ft 216 kts 131°
2026-04-23 04:37 68.60416 -178.56789 16791 ft 218 kts 131°
2026-04-23 04:37 68.59389 -178.53719 17203 ft 219 kts 131°
2026-04-23 04:38 68.58357 -178.50628 17616 ft 221 kts 132°
2026-04-23 04:38 68.57310 -178.47500 18042 ft 223 kts 133°
2026-04-23 04:38 68.56257 -178.44360 18476 ft 225 kts 133°
2026-04-23 04:38 68.55194 -178.41195 18869 ft 227 kts 133°
2026-04-23 04:39 68.54122 -178.38008 19243 ft 228 kts 134°
2026-04-23 04:39 68.53046 -178.34810 19609 ft 230 kts 134°
2026-04-23 04:39 68.51957 -178.31585 20000 ft 231 kts 134°
2026-04-23 04:39 68.50875 -178.28385 20326 ft 235 kts 134°
2026-04-23 04:40 68.49750 -178.25060 20589 ft 241 kts 134°
2026-04-23 04:40 68.48603 -178.21663 20854 ft 245 kts 134°
2026-04-23 04:40 68.47438 -178.18204 21130 ft 250 kts 134°
2026-04-23 04:40 68.46250 -178.14689 21401 ft 253 kts 135°
2026-04-23 04:41 68.45055 -178.11162 21670 ft 256 kts 135°
2026-04-23 04:41 68.43847 -178.07606 21945 ft 258 kts 135°
2026-04-23 04:41 68.42627 -178.04015 22230 ft 260 kts 135°
2026-04-23 04:41 68.41395 -178.00393 22503 ft 261 kts 135°
2026-04-23 04:42 68.40170 -177.96801 22776 ft 263 kts 135°
2026-04-23 04:42 68.38923 -177.93156 23064 ft 264 kts 135°
2026-04-23 04:42 68.37667 -177.89481 23348 ft 266 kts 136°
2026-04-23 04:42 68.36381 -177.85737 23361 ft 276 kts 136°
2026-04-23 04:43 68.35049 -177.81872 23370 ft 284 kts 135°
2026-04-23 04:43 68.33690 -177.77912 23367 ft 290 kts 136°
2026-04-23 04:43 68.32299 -177.73879 23361 ft 295 kts 135°
2026-04-23 04:43 68.30887 -177.69803 23365 ft 298 kts 135°
2026-04-23 04:44 68.29461 -177.65678 23359 ft 301 kts 136°
2026-04-23 04:44 68.28021 -177.61523 23357 ft 303 kts 135°
2026-04-23 04:44 68.26571 -177.57353 23352 ft 307 kts 136°
2026-04-23 04:44 68.25126 -177.53177 23352 ft 311 kts 135°
2026-04-23 04:45 68.23649 -177.48902 23349 ft 313 kts 136°
2026-04-23 04:45 68.22150 -177.44652 23346 ft 313 kts 136°
2026-04-23 04:45 68.20634 -177.40365 23341 ft 314 kts 136°
2026-04-23 04:45 68.19134 -177.36084 23332 ft 314 kts 136°
2026-04-23 04:46 68.17629 -177.31789 23333 ft 314 kts 136°
2026-04-23 04:46 68.16127 -177.27531 23326 ft 314 kts 136°
2026-04-23 04:46 68.14616 -177.23252 23329 ft 315 kts 136°
2026-04-23 04:46 68.13122 -177.19034 23326 ft 315 kts 136°
2026-04-23 04:47 68.11611 -177.14768 23321 ft 315 kts 136°
2026-04-23 04:47 68.10097 -177.10504 23318 ft 315 kts 136°
2026-04-23 04:47 68.08581 -177.06249 23316 ft 315 kts 136°
2026-04-23 04:47 68.07068 -177.02006 23319 ft 315 kts 136°
2026-04-23 04:48 68.05549 -176.97758 23314 ft 315 kts 136°
2026-04-23 04:48 68.04051 -176.93578 23309 ft 315 kts 136°
2026-04-23 04:48 68.02534 -176.89345 23311 ft 316 kts 136°
2026-04-23 04:48 68.01009 -176.85103 23305 ft 316 kts 136°
2026-04-23 04:49 67.99486 -176.80880 23300 ft 316 kts 136°
2026-04-23 04:49 67.97956 -176.76647 23297 ft 316 kts 136°
2026-04-23 04:49 67.96427 -176.72418 23299 ft 316 kts 136°
2026-04-23 04:49 67.94917 -176.68250 23300 ft 316 kts 136°
2026-04-23 04:50 67.93384 -176.64031 23292 ft 316 kts 137°
2026-04-23 04:50 67.91858 -176.59841 23287 ft 316 kts 137°
2026-04-23 04:50 67.90318 -176.55618 23294 ft 316 kts 137°
2026-04-23 04:50 67.88786 -176.51426 23286 ft 317 kts 137°
2026-04-23 04:51 67.87253 -176.47239 23283 ft 317 kts 137°
2026-04-23 04:51 67.85714 -176.43048 23278 ft 317 kts 137°
2026-04-23 04:51 67.84171 -176.38851 23277 ft 317 kts 137°
2026-04-23 04:51 67.82646 -176.34713 23270 ft 317 kts 137°
2026-04-23 04:52 67.81101 -176.30526 23268 ft 317 kts 137°
2026-04-23 04:52 67.79556 -176.26350 23265 ft 317 kts 137°
2026-04-23 04:52 67.78007 -176.22170 23265 ft 317 kts 137°
2026-04-23 04:52 67.76457 -176.17998 23260 ft 318 kts 137°
2026-04-23 04:53 67.74929 -176.13893 23255 ft 318 kts 137°
2026-04-23 04:53 67.73378 -176.09734 23248 ft 318 kts 137°
2026-04-23 04:53 67.71829 -176.05587 23251 ft 318 kts 137°
2026-04-23 04:53 67.70270 -176.01422 23244 ft 318 kts 137°
2026-04-23 04:54 67.68716 -175.97280 23241 ft 318 kts 137°
2026-04-23 04:54 67.67168 -175.93128 23369 ft 314 kts 137°
2026-04-23 04:54 67.65656 -175.89052 23661 ft 308 kts 137°
2026-04-23 04:54 67.64181 -175.85108 23917 ft 303 kts 138°
2026-04-23 04:55 67.62707 -175.81190 24145 ft 300 kts 138°
2026-04-23 04:55 67.61244 -175.77304 24377 ft 298 kts 138°
2026-04-23 04:55 67.59790 -175.73439 24616 ft 296 kts 138°
2026-04-23 04:55 67.58345 -175.69612 24853 ft 295 kts 138°
2026-04-23 04:56 67.56904 -175.65802 25091 ft 294 kts 138°
2026-04-23 04:56 67.55460 -175.61987 25332 ft 293 kts 138°
2026-04-23 04:56 67.54038 -175.58236 25583 ft 293 kts 139°
2026-04-23 04:56 67.52599 -175.54451 25828 ft 293 kts 139°
2026-04-23 04:57 67.51156 -175.50663 26082 ft 293 kts 139°
2026-04-23 04:57 67.49713 -175.46881 26335 ft 293 kts 139°
2026-04-23 04:57 67.48291 -175.43160 26592 ft 294 kts 139°
2026-04-23 04:57 67.46846 -175.39384 26848 ft 294 kts 139°
2026-04-23 04:58 67.45400 -175.35614 27108 ft 294 kts 139°
2026-04-23 04:58 67.43947 -175.31835 27372 ft 295 kts 139°
2026-04-23 04:58 67.42492 -175.28056 27642 ft 295 kts 140°
2026-04-23 04:58 67.41038 -175.24285 27909 ft 296 kts 140°
2026-04-23 04:59 67.39590 -175.20536 28173 ft 296 kts 140°
2026-04-23 04:59 67.38127 -175.16757 28449 ft 296 kts 140°
2026-04-23 04:59 67.36660 -175.12975 28726 ft 297 kts 140°
2026-04-23 04:59 67.35188 -175.09188 29003 ft 297 kts 140°
2026-04-23 05:00 67.33708 -175.05389 29179 ft 302 kts 140°
2026-04-23 05:00 67.32194 -175.01520 29179 ft 310 kts 140°
2026-04-23 05:00 67.29056 -174.93498 29178 ft 322 kts 140°
2026-04-23 05:01 67.25830 -174.85280 29173 ft 329 kts 140°
2026-04-23 05:01 67.22554 -174.76973 29160 ft 334 kts 141°
2026-04-23 05:02 67.19212 -174.68530 29150 ft 337 kts 141°
2026-04-23 05:02 67.15885 -174.60160 29142 ft 335 kts 142°
2026-04-23 05:03 67.12538 -174.51785 29128 ft 337 kts 141°
2026-04-23 05:03 67.09169 -174.43398 29125 ft 337 kts 142°
2026-04-23 05:04 67.05774 -174.35103 29105 ft 337 kts 141°
2026-04-23 05:04 67.02388 -174.26805 29107 ft 336 kts 142°
2026-04-23 05:05 66.99014 -174.18594 29097 ft 336 kts 142°
2026-04-23 05:05 66.95621 -174.10359 29093 ft 336 kts 142°
2026-04-23 05:06 66.92228 -174.02163 29082 ft 336 kts 142°
2026-04-23 05:06 66.88832 -173.93991 29086 ft 335 kts 142°
2026-04-23 05:07 66.85457 -173.85900 29075 ft 336 kts 143°
2026-04-23 05:07 66.82053 -173.77773 29068 ft 335 kts 143°
2026-04-23 05:08 66.79223 -173.71042 29062 ft 335 kts 143°
2026-04-23 05:08 66.75264 -173.61662 29054 ft 334 kts 143°
2026-04-23 05:09 66.72454 -173.55025 29210 ft 327 kts 143°
2026-04-23 05:09 66.70811 -173.51140 29442 ft 320 kts 143°
2026-04-23 05:09 66.69191 -173.47325 29578 ft 317 kts 143°
2026-04-23 05:10 66.67573 -173.43527 29710 ft 316 kts 143°
2026-04-23 05:10 66.65965 -173.39757 29849 ft 315 kts 143°
2026-04-23 05:10 66.64354 -173.35986 29986 ft 316 kts 143°
2026-04-23 05:10 66.62740 -173.32216 30115 ft 317 kts 143°
2026-04-23 05:11 66.61121 -173.28436 30232 ft 317 kts 144°
2026-04-23 05:11 66.59513 -173.24694 30343 ft 318 kts 144°
2026-04-23 05:11 66.57888 -173.20916 30457 ft 318 kts 143°
2026-04-23 05:11 66.56263 -173.17146 30569 ft 318 kts 143°
2026-04-23 05:12 66.54638 -173.13379 30683 ft 318 kts 143°
2026-04-23 05:12 66.53032 -173.09639 30799 ft 318 kts 143°
2026-04-23 05:12 66.51410 -173.05868 30908 ft 318 kts 143°
2026-04-23 05:12 66.49781 -173.02097 31007 ft 318 kts 143°
2026-04-23 05:13 66.46477 -172.94480 30998 ft 325 kts 143°
2026-04-23 05:14 66.41447 -172.82915 30989 ft 331 kts 143°
2026-04-23 05:14 66.38052 -172.75146 30977 ft 330 kts 143°
2026-04-23 05:15 66.34657 -172.67410 30972 ft 330 kts 144°
2026-04-23 05:15 66.31285 -172.59754 30968 ft 330 kts 144°
2026-04-23 05:16 66.27894 -172.52077 30970 ft 330 kts 144°
2026-04-23 05:16 66.24502 -172.44408 30960 ft 329 kts 144°
2026-04-23 05:17 66.21107 -172.36770 30953 ft 329 kts 144°
2026-04-23 05:17 66.17717 -172.29171 30950 ft 328 kts 144°
2026-04-23 05:18 66.14346 -172.21645 30946 ft 328 kts 144°
2026-04-23 05:18 66.10949 -172.14086 30943 ft 328 kts 144°
2026-04-23 05:19 66.07551 -172.06555 30938 ft 328 kts 144°
2026-04-23 05:19 66.04150 -171.99043 30933 ft 328 kts 144°
2026-04-23 05:20 66.00772 -171.91613 30925 ft 328 kts 145°
2026-04-23 05:20 65.97371 -171.84157 30919 ft 327 kts 145°
2026-04-23 05:21 65.93974 -171.76741 30915 ft 326 kts 145°
2026-04-23 05:21 65.90647 -171.69496 30455 ft 313 kts 146°
2026-04-23 05:21 65.89040 -171.66004 30078 ft 306 kts 147°
2026-04-23 05:22 65.87454 -171.62590 29643 ft 301 kts 147°
2026-04-23 05:22 65.85915 -171.59272 29204 ft 297 kts 147°
2026-04-23 05:22 65.84372 -171.55940 28760 ft 294 kts 147°
2026-04-23 05:22 65.82843 -171.52647 28334 ft 292 kts 147°
2026-04-23 05:23 65.81321 -171.49377 27909 ft 290 kts 147°
2026-04-23 05:23 65.79808 -171.46137 27466 ft 282 kts 137°
2026-04-23 05:23 65.78373 -171.43068 27079 ft 268 kts 137°
2026-04-23 05:23 65.76992 -171.40149 26775 ft 256 kts 137°
2026-04-23 05:24 65.75687 -171.37338 26498 ft 245 kts 136°
2026-04-23 05:24 65.74429 -171.34636 26225 ft 237 kts 136°
2026-04-23 05:24 65.73213 -171.32042 25957 ft 230 kts 136°
2026-04-23 05:24 65.72036 -171.29542 25588 ft 224 kts 136°
2026-04-23 05:25 65.70875 -171.27077 25199 ft 219 kts 136°
2026-04-23 05:25 65.69752 -171.24693 24813 ft 207 kts 136°
2026-04-23 05:25 65.68700 -171.22462 24433 ft 195 kts 136°
2026-04-23 05:25 65.67702 -171.20345 24048 ft 185 kts 136°
2026-04-23 05:26 65.66754 -171.18337 23668 ft 177 kts 136°
2026-04-23 05:26 65.65820 -171.16348 23272 ft 179 kts 135°
2026-04-23 05:26 65.64879 -171.14341 22838 ft 180 kts 137°
2026-04-23 05:26 65.63850 -171.12673 22434 ft 182 kts 149°
2026-04-23 05:27 65.62655 -171.11597 22028 ft 184 kts 160°
2026-04-23 05:27 65.61371 -171.11209 21632 ft 188 kts 172°
2026-04-23 05:27 65.60055 -171.11580 21238 ft 193 kts 185°
2026-04-23 05:27 65.58780 -171.12748 20847 ft 199 kts 199°
2026-04-23 05:28 65.57632 -171.14708 20466 ft 206 kts 214°
2026-04-23 05:28 65.56712 -171.17369 20097 ft 213 kts 230°
2026-04-23 05:28 65.56089 -171.20669 19726 ft 220 kts 246°
2026-04-23 05:28 65.55681 -171.24239 19352 ft 219 kts 247°
2026-04-23 05:29 65.55259 -171.27761 18978 ft 218 kts 246°
2026-04-23 05:29 65.54837 -171.31263 18610 ft 216 kts 247°
2026-04-23 05:29 65.54426 -171.34744 18246 ft 215 kts 248°
2026-04-23 05:29 65.53998 -171.38306 17850 ft 226 kts 248°
2026-04-23 05:30 65.53556 -171.42006 17451 ft 232 kts 247°
2026-04-23 05:30 65.53085 -171.45923 17067 ft 254 kts 247°
2026-04-23 05:30 65.52588 -171.50090 16693 ft 268 kts 249°
2026-04-23 05:30 65.52071 -171.54473 16440 ft 272 kts 249°
2026-04-23 05:31 65.51549 -171.58844 16304 ft 268 kts 252°
2026-04-23 05:31 65.51040 -171.63049 16185 ft 256 kts 252°
2026-04-23 05:31 65.50504 -171.67088 16044 ft 249 kts 246°
2026-04-23 05:31 65.49652 -171.70556 15887 ft 228 kts 233°
2026-04-23 05:32 65.48628 -171.73221 15720 ft 205 kts 222°
2026-04-23 05:32 65.47435 -171.75283 15575 ft 220 kts 211°
2026-04-23 05:32 65.46085 -171.77145 15446 ft 232 kts 211°
2026-04-23 05:32 65.44674 -171.79154 15327 ft 239 kts 212°
2026-04-23 05:33 65.43225 -171.81215 15206 ft 244 kts 211°
2026-04-23 05:33 65.41747 -171.83290 15077 ft 247 kts 211°
2026-04-23 05:33 65.40255 -171.85382 14955 ft 249 kts 211°
2026-04-23 05:33 65.38755 -171.87485 14829 ft 250 kts 211°
2026-04-23 05:34 65.37246 -171.89598 14698 ft 251 kts 211°
2026-04-23 05:34 65.35733 -171.91714 14572 ft 252 kts 211°
2026-04-23 05:34 65.34218 -171.93831 14447 ft 252 kts 211°
2026-04-23 05:34 65.32698 -171.95950 14320 ft 253 kts 211°
2026-04-23 05:35 65.31172 -171.98076 14196 ft 255 kts 211°
2026-04-23 05:35 65.29651 -172.00196 14071 ft 258 kts 211°
2026-04-23 05:35 65.28087 -172.02370 13952 ft 260 kts 211°
2026-04-23 05:35 65.26515 -172.04552 13830 ft 262 kts 211°
2026-04-23 05:36 65.24934 -172.06744 13705 ft 263 kts 211°
2026-04-23 05:36 65.23349 -172.08935 13574 ft 263 kts 211°
2026-04-23 05:36 65.21759 -172.11129 13434 ft 263 kts 210°
2026-04-23 05:36 65.20169 -172.13323 13289 ft 263 kts 210°
2026-04-23 05:37 65.18602 -172.15482 13150 ft 263 kts 210°
2026-04-23 05:37 65.17017 -172.17664 13007 ft 263 kts 210°
2026-04-23 05:37 65.15430 -172.19844 12874 ft 263 kts 210°
2026-04-23 05:37 65.13848 -172.22014 12736 ft 263 kts 210°
2026-04-23 05:38 65.12263 -172.24186 12593 ft 263 kts 210°
2026-04-23 05:38 65.10676 -172.26357 12457 ft 262 kts 210°
2026-04-23 05:38 65.09095 -172.28517 12321 ft 262 kts 210°
2026-04-23 05:38 65.07513 -172.30675 12184 ft 262 kts 210°
2026-04-23 05:39 65.05929 -172.32833 12046 ft 262 kts 210°
2026-04-23 05:39 65.04412 -172.34900 11864 ft 246 kts 210°
2026-04-23 05:39 65.02976 -172.36837 11584 ft 230 kts 209°
2026-04-23 05:39 65.01604 -172.38685 11301 ft 223 kts 210°
2026-04-23 05:40 65.00276 -172.40487 11030 ft 218 kts 210°
2026-04-23 05:40 64.98974 -172.42255 10761 ft 212 kts 210°
2026-04-23 05:40 64.97721 -172.43951 10500 ft 208 kts 209°
2026-04-23 05:40 64.96473 -172.45634 10238 ft 204 kts 210°
2026-04-23 05:41 64.95250 -172.47285 9977 ft 200 kts 210°
2026-04-23 05:41 64.94051 -172.48901 9717 ft 197 kts 210°
2026-04-23 05:41 64.92860 -172.50503 9432 ft 195 kts 209°
2026-04-23 05:41 64.91698 -172.52065 9154 ft 194 kts 208°
2026-04-23 05:42 64.90530 -172.53640 8875 ft 193 kts 208°
2026-04-23 05:42 64.89391 -172.55164 8842 ft 183 kts 207°
2026-04-23 05:42 64.88304 -172.56611 8836 ft 176 kts 207°
2026-04-23 05:42 64.87158 -172.57156 8832 ft 167 kts 169°
2026-04-23 05:43 64.86044 -172.56511 8836 ft 164 kts 163°
2026-04-23 05:43 64.84948 -172.55844 8830 ft 163 kts 165°
2026-04-23 05:43 64.83842 -172.55297 8837 ft 162 kts 167°
2026-04-23 05:43 64.82731 -172.54830 8831 ft 161 kts 168°
2026-04-23 05:44 64.81641 -172.54381 8836 ft 161 kts 168°
2026-04-23 05:44 64.80537 -172.53929 8830 ft 161 kts 168°
2026-04-23 05:44 64.79432 -172.53478 8917 ft 160 kts 166°
2026-04-23 05:44 64.78306 -172.53537 8846 ft 165 kts 187°
2026-04-23 05:45 64.77228 -172.54446 8849 ft 166 kts 202°
2026-04-23 05:45 64.76237 -172.55831 8843 ft 165 kts 204°
2026-04-23 05:45 64.75247 -172.57147 8842 ft 163 kts 203°
2026-04-23 05:45 64.74265 -172.58461 8842 ft 162 kts 204°
2026-04-23 05:46 64.73299 -172.59761 8841 ft 162 kts 203°
2026-04-23 05:46 64.72323 -172.61078 8841 ft 162 kts 204°
2026-04-23 05:46 64.71346 -172.62384 8840 ft 162 kts 203°
2026-04-23 05:46 64.70367 -172.63688 8839 ft 162 kts 204°
2026-04-23 05:47 64.69392 -172.65001 8840 ft 161 kts 204°
2026-04-23 05:47 64.68415 -172.66311 8842 ft 161 kts 205°
2026-04-23 05:47 64.67455 -172.67596 8839 ft 161 kts 204°
2026-04-23 05:47 64.66484 -172.68902 8834 ft 161 kts 205°
2026-04-23 05:48 64.65472 -172.70248 8520 ft 173 kts 204°
2026-04-23 05:48 64.64410 -172.71670 8179 ft 178 kts 204°
2026-04-23 05:48 64.63329 -172.73116 7844 ft 181 kts 204°
2026-04-23 05:48 64.62233 -172.74591 7508 ft 182 kts 203°
2026-04-23 05:49 64.61135 -172.76052 7172 ft 182 kts 201°
2026-04-23 05:49 64.60028 -172.77508 6843 ft 182 kts 204°
2026-04-23 05:49 64.58920 -172.78993 6510 ft 184 kts 203°
2026-04-23 05:49 64.57822 -172.80438 6191 ft 183 kts 202°
2026-04-23 05:50 64.56763 -172.81845 6175 ft 165 kts 202°
2026-04-23 05:50 64.55786 -172.83132 6176 ft 160 kts 201°
2026-04-23 05:50 64.54822 -172.84413 6176 ft 157 kts 200°
2026-04-23 05:50 64.53879 -172.85653 6182 ft 154 kts 201°
2026-04-23 05:51 64.52955 -172.86878 6175 ft 153 kts 201°
2026-04-23 05:51 64.52025 -172.88107 6170 ft 154 kts 201°
2026-04-23 05:51 64.51110 -172.89311 6168 ft 151 kts 202°
2026-04-23 05:51 64.50193 -172.90523 6180 ft 152 kts 203°
2026-04-23 05:52 64.49272 -172.91739 6175 ft 152 kts 200°
2026-04-23 05:52 64.48355 -172.92932 6169 ft 150 kts 202°
2026-04-23 05:52 64.47464 -172.94111 6172 ft 149 kts 202°
2026-04-23 05:52 64.46563 -172.95294 6170 ft 148 kts 202°
2026-04-23 05:53 64.45664 -172.96393 6165 ft 145 kts 196°
2026-04-23 05:53 64.44716 -172.97251 6038 ft 151 kts 196°
2026-04-23 05:53 64.43703 -172.98182 5771 ft 161 kts 195°
2026-04-23 05:53 64.42637 -172.99173 5514 ft 168 kts 195°
2026-04-23 05:54 64.41536 -173.00197 5253 ft 172 kts 193°
2026-04-23 05:54 64.40416 -173.01233 4993 ft 174 kts 192°
2026-04-23 05:54 64.39279 -173.02282 4739 ft 178 kts 192°
2026-04-23 05:54 64.38130 -173.03343 4476 ft 180 kts 192°
2026-04-23 05:55 64.36969 -173.04410 4250 ft 176 kts 191°
2026-04-23 05:55 64.35865 -173.05424 4248 ft 166 kts 192°
2026-04-23 05:55 64.34817 -173.06390 4245 ft 157 kts 189°
2026-04-23 05:55 64.33803 -173.07314 4235 ft 155 kts 190°
2026-04-23 05:56 64.32806 -173.08228 4235 ft 154 kts 191°
2026-04-23 05:56 64.31810 -173.09148 4237 ft 154 kts 189°
2026-04-23 05:56 64.30805 -173.10070 4239 ft 155 kts 190°
2026-04-23 05:56 64.29819 -173.10967 4234 ft 152 kts 191°
2026-04-23 05:57 64.28867 -173.11848 4230 ft 145 kts 190°
2026-04-23 05:57 64.27928 -173.12661 4227 ft 143 kts 186°
2026-04-23 05:57 64.27012 -173.13537 4224 ft 146 kts 195°
2026-04-23 05:57 64.26249 -173.15174 4226 ft 154 kts 225°
2026-04-23 05:58 64.25807 -173.17463 4219 ft 161 kts 258°
2026-04-23 05:58 64.25776 -173.20006 4235 ft 158 kts 267°
2026-04-23 05:58 64.25752 -173.22596 4113 ft 169 kts 267°
2026-04-23 05:58 64.25725 -173.25356 3850 ft 174 kts 270°
2026-04-23 05:59 64.25852 -173.28081 3563 ft 167 kts 298°
2026-04-23 05:59 64.26408 -173.30225 3286 ft 146 kts 325°
2026-04-23 05:59 64.27140 -173.31577 3031 ft 126 kts 347°
2026-04-23 05:59 64.27647 -173.32077 2848 ft 114 kts
2026-04-23 06:00 64.28599 -173.32370 2484 ft 96 kts 19°
2026-04-23 06:00 64.29203 -173.32139 2327 ft 77 kts 29°
2026-04-23 06:00 64.29706 -173.31865 2109 ft 83 kts 17°
2026-04-23 06:00 64.30091 -173.31810 1951 ft 82 kts 24°
2026-04-23 06:01 64.30663 -173.31487 1674 ft 87 kts 29°
2026-04-23 06:01 64.31204 -173.30876 1352 ft 88 kts 40°
2026-04-23 06:01 64.31744 -173.30210 1068 ft 89 kts 28°
2026-04-23 06:01 64.32294 -173.29788 875 ft 80 kts 30°
2026-04-23 06:02 64.32784 -173.29386 691 ft 72 kts 30°
2026-04-23 06:02 64.33226 -173.28835 558 ft 71 kts 36°
2026-04-23 06:02 64.33657 -173.28326 481 ft 71 kts 31°
2026-04-23 06:02 64.34074 -173.27870 484 ft 64 kts 32°
2026-04-23 06:03 64.34500 -173.27452 409 ft 68 kts 30°
2026-04-23 06:03 64.34939 -173.27052 399 ft 66 kts 31°
2026-04-23 06:03 64.35362 -173.26647 329 ft 68 kts 30°
2026-04-23 06:03 64.35783 -173.26277 346 ft 62 kts 28°
2026-04-23 06:04 64.36162 -173.25824 264 ft 63 kts 25°
2026-04-23 06:04 64.36589 -173.25501 180 ft 64 kts 32°
2026-04-23 06:04 64.36969 -173.25126 105 ft 51 kts 33°
2026-04-23 06:04 64.37310 -173.24822 93 ft 37 kts 18°
2026-04-23 06:05 64.37441 -173.24682 94 ft 16 kts 35°
2026-04-23 06:05 64.37473 -173.24469 94 ft 15 kts 93°
2026-04-23 06:05 64.37465 -173.24249 93 ft 13 kts 108°
2026-04-23 06:05 64.37462 -173.24061 93 ft 10 kts 55°
2026-04-23 06:06 64.37514 -173.23998 93 ft 8 kts 21°
2026-04-23 06:06 64.37558 -173.23951 94 ft 6 kts 16°
2026-04-23 06:06 64.37594 -173.23927 94 ft 5 kts 21°
2026-04-23 06:06 64.37634 -173.23895 94 ft 10 kts 21°
2026-04-23 06:07 64.37701 -173.23798 93 ft 12 kts 53°
2026-04-23 06:07 64.37743 -173.23649 95 ft 10 kts 59°
2026-04-23 06:07 64.37764 -173.23508 94 ft 9 kts 70°
2026-04-23 06:07 64.37788 -173.23389 94 ft 7 kts 79°
2026-04-23 06:08 64.37791 -173.23349 94 ft 2 kts 62°
2026-04-23 06:08 64.37792 -173.23348 94 ft 0 kts 64°